Regional Weather Roundup
Issued by NWS Nashville, TN

Home | Current Version | Previous Version | Text Only | Print | Product List | Glossary On
Versions: 1 2 3 4 5 6 7 8 9 10 11 12 13 14 15 16 17 18 19 20 21 22 23 24 25 26 27 28 29 30 31 32 33 34 35 36 37 38 39 40 41 42 43 44 45 46 47 48 49 50
000
ASUS44 KOHX 190315
RWROHX
MIDDLE TENNESSEE HOURLY WEATHER ROUNDUP
NATIONAL WEATHER SERVICE NASHVILLE TN
900 PM CST THU DEC 18 2014

NOTE: "FAIR" INDICATES FEW OR NO CLOUDS BELOW 12,000 FEET WITH
NO SIGNIFICANT WEATHER AND/OR OBSTRUCTIONS TO VISIBILITY.

* THESE REPORTS ARE NOT UNDER NWS QUALITY CONTROL AND MAY NOT
  REPORT WEATHER SUCH AS PRECIPITATION AND FOG.


TNZ005>011-023>034-057-059-062>066-078-080-190400
...NORTHERN MIDDLE TENNESSEE...

CITY           SKY/WX    TMP DP  RH WIND       PRES   REMARKS
CLARKSVILLE    CLOUDY    35  30  82 N3        30.24S
CROSSVILLE     CLOUDY    37  30  75 NW3       30.17S
GALLATIN       CLOUDY    34  31  89 CALM      30.24S
DICKSON        CLOUDY    34  30  86 CALM      30.21S
LEBANON        CLOUDY    34  31  89 NW3       30.21S
LIVINGSTON     CLOUDY    33  29  86 CALM      30.19S
NASHVILLE      CLOUDY    37  32  82 N5        30.24S WCI  33
WEST NASHVILLE CLOUDY    34  34 100 CALM      30.24
PORTLAND       CLOUDY    30  28  93 CALM      30.21S
SMYRNA         CLOUDY    37  32  82 CALM      30.25S
SPARTA         PTCLDY    36  32  87 CALM      30.19R
$$
TNZ056-058-060-061-075>077-079-093>097-190400
...SOUTHERN MIDDLE TENNESSEE...

CITY           SKY/WX    TMP DP  RH WIND       PRES   REMARKS
LEWISBURG        N/A     31  29  92 CALM      30.22S
MCMINNVILLE    CLOUDY    37  34  87 CALM      30.19S
MURFREESBORO   CLOUDY    37  32  82 CALM      30.23R
SHELBYVILLE    PTCLDY    34  34 100 CALM      30.23R
TULLAHOMA      CLEAR     32  30  93 CALM      30.20R
WINCHESTER     MOCLDY    37  36  93 CALM      30.20R
$$


...KEY TO REMARKS...
VSB - VISIBILITY IN MILES
WCI - WIND CHILL INDEX
HX  - HEAT INDEX



USA.gov is the U.S. government's official web portal to all federal, state and local government web resources and services.